Tracking 20945 objects as of 9-Jul-2020
HD Live streaming from Space Station
objects crossing your sky now

COSMOS 1375 DEB

Track COSMOS 1375 DEB now!
10-day predictions


NORAD ID: 17794
Int'l Code: 1982-055AL
Perigee: 886.2 km
Apogee: 965.2 km
Inclination: 65.8 °
Period: 103.4 minutes
Semi major axis: 7296 km
RCS: 0.0068 m2 (small)
Launch date: June 6, 1982
Source: Commonwealth of Independent States (former USSR) (CIS)
Launch site: PLESETSK MISSILE AND SPACE COMPLEX (PKMTR)

Note: This is SATELLITE DEBRIS
aabbcc
Your satellite tracking list
Your tracking list is empty




NASA's NSSDC Master Catalog

Two Line Element Set (TLE):
1 17794U 82055AL  20190.92062062 +.00000154 +00000-0 +18135-3 0  9998
2 17794 065.8220 063.1042 0054077 318.8961 040.8042 13.92880663749383
Source of the keplerian elements: AFSPC